This is the latest recevied weather packets stored in our database for station/object SP5MRF-11. If no packets are shown the sender has not sent any weather packets the latest 10 day(s).
| Time | Temp. | Humidity | Pressure | Rain* | Wind** | Luminosity | Snow |
|---|---|---|---|---|---|---|---|
| 1788436953 | 26.67° C | 42% | 1017.9 hPa | - | - | - | - |
| 1788436053 | 30° C | 39% | 1018 hPa | - | - | - | - |
| 1788435152 | 35° C | 34% | 1018.1 hPa | - | - | - | - |
| 1788434252 | 35.56° C | 34% | 1018.2 hPa | - | - | - | - |
| 1788433352 | 37.22° C | 32% | 1018.3 hPa | - | - | - | - |
| 1788432452 | 37.78° C | 32% | 1018.5 hPa | - | - | - | - |
| 1788431552 | 37.78° C | 33% | 1018.7 hPa | - | - | - | - |
| 1788430651 | 39.44° C | 33% | 1018.8 hPa | - | - | - | - |
| 1788429751 | 40° C | 33% | 1018.9 hPa | - | - | - | - |
| 1788428851 | 40.56° C | 32% | 1019.1 hPa | - | - | - | - |
| 1788427951 | 41.11° C | 32% | 1019 hPa | - | - | - | - |
| 1788427051 | 41.11° C | 32% | 1019.1 hPa | - | - | - | - |
| 1788426151 | 41.11° C | 32% | 1019.2 hPa | - | - | - | - |
| 1788425276 | 40° C | 36% | 1019.2 hPa | - | - | - | - |
| 1788424350 | 41.11° C | 35% | 1019.4 hPa | - | - | - | - |
| 1788423450 | 40.56° C | 38% | 1019.4 hPa | - | - | - | - |
| 1788422550 | 40° C | 39% | 1019.3 hPa | - | - | - | - |
| 1788421650 | 39.44° C | 39% | 1019.2 hPa | - | - | - | - |
| 1788420749 | 38.33° C | 41% | 1019.1 hPa | - | - | - | - |
| 1788419849 | 35.56° C | 43% | 1019.1 hPa | - | - | - | - |
| 1788418949 | 28.33° C | 49% | 1019 hPa | - | - | - | - |
| 1788418049 | 18.89° C | 59% | 1019.1 hPa | - | - | - | - |
| 1788417149 | 17.78° C | 60% | 1019 hPa | - | - | - | - |
| 1788416249 | 17.22° C | 60% | 1019 hPa | - | - | - | - |
| 1788415358 | 16.67° C | 60% | 1019.2 hPa | - | - | - | - |
* Rain since midnight (hover to see other rain measurements)
** Current wind speed in m/s (hover to see current wind gust speed)